COSMOS 1275 DEB, 12676

Orbit data source: Space-Track

COSMOS 1275 DEB, 12676 is space debris in LEO originally from a launch on Thu, 04 Jun 1981 UTC launched from the Plesetsk Missile And Space Complex (PKMTR). Debris objects in space refer to the collection of defunct objects orbiting the Earth. Examples of debris include non-operational satellites, rocket bodies, and fragments generated from explosions, collisions, or faulty payload assembly.

Loading next visibility...
Identifier
12676, 1981-053AG
Orbit
LEO
Country
Flag of CISCIS
Related business
Manufacturer
Unknown
Mission
Spacecraft
Bus & Motor
Unknown
Mass
Unknown
Launch date (UTC)
1981-06-04 (44 years ago)
Launch vehicle
Unknown
Launch site
Plesetsk Missile And Space Complex (PKMTR)
Object type
Payload
Rocket body
Debris
Shape & HBR
Unknown
Radar Cross Section
Medium (>0.1 m² and <1 m²)

Expand to show TLE details & history
Last TLE update: 8 hours ago

TLE from 8 hours ago
0 COSMOS 1275 DEB
1 12676U 81053AG  25260.93920338  .00000405  00000-0  33281-3 0  9990
2 12676  82.9461 326.2030 0045481 152.8413 329.1269 13.86491771222999
Epoch: 2025-09-17T22:32Z
TLE epoch observation values (Epoch: 2025-09-17T22:32:27.172Z)
Latitude
57.70182°
Longitude
159.75315°
Altitude
922.124 km
Speed
7.411 km/s
True Right ascension
08h 59m 53s
True Declination
57° 32' 59"
Sunlit
Object was in daylight at epoch
Visualization orbit readout
Latitude
Unknown
Longitude
Unknown
Altitude
Unknown
Speed
Unknown
Apparent Right ascension
Unknown
Apparent Declination
Unknown
Sunlit
N/A
Visualization observer readout
Local Sidereal Time
22:52:30
Azimuth
Unknown
Elevation
Unknown
Doppler factor
Unknown
Orbital elements
Apogee altitude
971.359 km
Perigee altitude
904.809 km
Semi-major axis
7,316.221 km
Eccentricity
0.00455
Inclination
82.9461°
RAAN
326.203°
Arg. of periapsis
152.8413°
True anomaly
328.85816°
Mean anomaly
329.1269°
Eccentric anomaly
328.99266°
Mean motion
3.46827 °/min
Orbital period
103.8 mins
BSTAR
0.00033281
Loading maneuver chart data...
Computing Atmospheric mass density...
Loading historical data...
Loading historical data...
Loading historical data...
Loading historical data...
Loading historical data...
Loading historical data...
Loading historical data...

Documentation

Showing up to 5 results
|